Regional Weather Roundup
Issued by NWS

Home | Current Version | Previous Version | Graphics & Text | Print | Product List | Glossary On
Versions: 1 2 3 4 5 6 7 8 9 10 11 12 13 14 15 16 17 18 19 20 21 22 23 24 25 26 27 28 29 30 31 32 33 34 35 36 37 38 39 40 41 42 43 44 45 46 47 48 49 50
000
ASUS43 KTOP 140359
RWRKS

WEATHER ROUNDUP FOR KANSAS
NATIONAL WEATHER SERVICE GOODLAND KS
1100 PM CDT SUN JUL 13 2014

NOTE:  "FAIR" INDICATES FEW OR NO CLOUDS BELOW 12,000 FEET WITH NO
SIGNIFICANT WEATHER AND/OR OBSTRUCTIONS TO VISIBILITY.

KSZ001>006-013>018-027>032-041>047-140500-
NORTHWEST KANSAS

CITY           SKY/WX    TMP DP  RH WIND       PRES   REMARKS
GOODLAND       MOCLDY    67  62  84 SW12      30.18R
HAYS           CLOUDY    75  63  64 SW3       30.09R
HILL CITY      MOCLDY    74  64  71 W5        30.10R
RUSSELL        MOCLDY    73  65  75 S6        30.06R
$$

KSZ061>065-074>080-084>089-140500-
SOUTHWEST KANSAS

CITY           SKY/WX    TMP DP  RH WIND       PRES   REMARKS
DODGE CITY     PTCLDY    72  59  63 S6        30.13R
ELKHART          N/A     73  66  78 E5          N/A
GARDEN CITY    MOCLDY    77  59  53 CALM      30.16R
GREAT BEND     MOCLDY    75  66  73 S3        30.07R
LIBERAL        CLEAR     79  57  47 E7        30.17R
$$

KSZ066>073-081>083-090>101-140500-
SOUTHEAST KANSAS

CITY           SKY/WX    TMP DP  RH WIND       PRES   REMARKS
CHANUTE        MOCLDY    78  71  79 N3        29.98F
COFFEYVILLE    CLOUDY    80  72  76 NW5       29.98R
HUTCHINSON     CLOUDY    74  67  78 CALM      30.04R
NEWTON         MOCLDY    77  63  61 CALM      30.07S
PARSONS        CLOUDY    77  72  84 CALM      29.99S
WICHITA INTL   MOCLDY    78  69  73 CALM      30.03R
WICHITA JABRA  PTCLDY    78  70  76 CALM      30.04R
WINFIELD       PTCLDY    76  72  87 CALM      30.03R
$$

KSZ007>012-019>026-033>040-048>060-102>105-140500-
NORTHEAST KANSAS

CITY           SKY/WX    TMP DP  RH WIND       PRES   REMARKS
CONCORDIA      MOCLDY    74  63  68 S3        30.03R
EMPORIA        CLEAR     71  67  87 CALM      30.02R
LAWRENCE       CLEAR     70  67  90 N3        29.99S
MANHATTAN      PTCLDY    74  69  85 CALM      30.01R
OLATHE IND     CLEAR     71  67  87 NW3       30.01R
OLATHE EXE     CLEAR     76  67  73 NW3       29.99S
SALINA         PTCLDY    80  64  58 CALM      30.03R
TOPEKA BILLARD CLEAR     76  70  82 CALM      30.00S
TOPEKA FORBES  CLEAR     72  68  87 CALM      30.00S
$$



USA.gov is the U.S. government's official web portal to all federal, state and local government web resources and services.